Home   Weather   Akron   Past weeks

Flag for USA Past Weather in Akron, Ohio, USA — Yesterday and Last 2 Weeks

Now
39 °F

Fog.


Feels Like: 31 °F
Forecast: 38 / 46 °F
Wind: 13 mph from Northwest

Location: Akron Fulton International Airport

Current Time: Jan 18, 2017 at 7:13:33 am

Latest Report: Jan 18, 2017 at 6:33 am


Visibility: 6 mi

Pressure: 30.01 "Hg

Humidity: 86%

Dew Point: 35 °F

Location of AkronLocation

Past Weather in Akron — Graph

°F

Akron Temperature Yesterday

Maximum temperature yesterday: 60 °F (at 1:09 pm)
Minimum temperature yesterday: 41 °F (at 12:25 am)
Average temperature yesterday: 50 °F

High & Low Weather Summary for the Past Weeks

 TemperatureHumidityPressure
High64 °F (Jan 12, 12:33 pm)93% (Jan 3, 6:54 am)30.72 "Hg (Jan 3, 6:54 am)
Low3 °F (Jan 6, 5:54 am)45% (Jan 10, 12:54 am)29.54 "Hg (Jan 3, 4:30 pm)
Average31 °F75%30.13 "Hg
* Reported Jan 3 5:02 am — Jan 18 5:54 am, Akron, Weather by CustomWeather, © 2017

Note: Actual official high and low records may vary slightly from our data, if they occured in-between our weather recording intervals... More about our weather records

Advertising

Akron Weather History for the Previous 24 Hours

Scroll right to see more
 ConditionsComfort  
Time TempWeatherWind HumidityBarometerVisibility
5:54 am
Wed, Jan 18
40 °FLow clouds.14 mph83%30.01 "Hg10 mi
4:54 am42 °FLight rain. Fog.13 mph89%29.98 "Hg3 mi
4:27 am42 °FFog.7 mph89%29.97 "Hg3 mi
4:13 am43 °FFog.12 mph86%29.97 "Hg4 mi
3:54 am43 °FMostly cloudy.12 mph86%29.96 "Hg8 mi
3:38 am44 °FOvercast.14 mph85%29.95 "Hg10 mi
2:54 am44 °FFog.8 mph89%29.94 "Hg5 mi
2:04 am44 °FLow clouds.8 mph89%29.92 "Hg8 mi
1:54 am44 °FLight rain. Fog.7 mph89%29.93 "Hg6 mi
12:54 am45 °FMostly cloudy.14 mph86%29.93 "Hg7 mi
11:54 pm
Tue, Jan 17
47 °FLow clouds.18 mph83%29.91 "Hg10 mi
11:24 pm47 °FLow clouds.17 mph86%29.91 "Hg7 mi
10:54 pm48 °FOvercast.15 mph83%29.90 "Hg10 mi
10:28 pm49 °FOvercast.13 mph77%29.90 "Hg10 mi
9:54 pm49 °FOvercast.7 mph77%29.89 "Hg10 mi
8:54 pm50 °FMostly cloudy.18 mph74%29.89 "Hg10 mi
7:54 pm52 °FOvercast.15 mph72%29.88 "Hg10 mi
6:54 pm53 °FOvercast.7 mph74%29.86 "Hg10 mi
5:54 pm53 °FClear.14 mph74%29.84 "Hg10 mi
4:54 pm55 °FPartly sunny.17 mph69%29.83 "Hg10 mi
3:54 pm57 °FCloudy.18 mph69%29.82 "Hg10 mi
2:54 pm59 °FBroken clouds.15 mph67%29.80 "Hg10 mi
1:54 pm60 °FOvercast.17 mph67%29.80 "Hg10 mi
1:09 pm60 °FCloudy.13 mph75%29.80 "Hg10 mi
12:54 pm59 °FLight rain. Cloudy.14 mph81%29.81 "Hg10 mi
11:54 am59 °FMostly cloudy.13 mph81%29.81 "Hg10 mi
11:19 am58 °FMostly cloudy.13 mph84%29.83 "Hg10 mi
10:54 am57 °FMostly cloudy.14 mph87%29.84 "Hg10 mi
10:24 am57 °FMostly cloudy.15 mph87%29.85 "Hg10 mi
9:54 am55 °FLow clouds.12 mph90%29.85 "Hg10 mi
9:12 am54 °FLight rain. Fog.13 mph86%29.86 "Hg6 mi
9:04 am53 °FLight rain. Fog.10 mph89%29.86 "Hg2 mi
7:54 am50 °FFog.9 mph89%29.90 "Hg6 mi
Weather by CustomWeather, © 2017

See weather overviewHow to use our weather pages